FDX1 EGSS-KMEM

Flight info

Callsign FDX1
Flight time N/A
Altitude 34000
Route NUGBO M183 SILVA P86 DIDZA N14 OKSAW DCT BIBPE DCT FELCA DCT NICXI DCT BAKUR DCT DOGAL/M083F360 DCT 54N020W 53N030W 52N040W 51N050W DCT ALLRY/N0476F380 N484E ANATI DCT YXI DCT YVV DCT SVM DCT FWA DCT VHP DCT PXV BLUZZ5
Aircraft B77L/H-SDE1E2E3FGHIJ2J3J4J5M1RWXY/LB1D1

Departure

Time 2026-05-01 08:55
Airport London Stansted Airport (EGSS)

Arrival

Time N/A
Airport Memphis International Airport (KMEM)
Time Latitude Longitude Altitude Speed Heading
2026-05-01 08:12 51.88367 0.24440 362 ft 0 kts 223°
2026-05-01 08:42 51.88368 0.24440 353 ft 0 kts 223°
2026-05-01 08:43 51.88378 0.24454 362 ft 2 kts 224°
2026-05-01 08:43 51.88389 0.24473 362 ft 2 kts 226°
2026-05-01 08:43 51.88401 0.24493 362 ft 2 kts 229°
2026-05-01 08:44 51.88411 0.24514 362 ft 2 kts 234°
2026-05-01 08:44 51.88420 0.24536 362 ft 2 kts 248°
2026-05-01 08:44 51.88423 0.24563 357 ft 2 kts 287°
2026-05-01 08:44 51.88417 0.24582 362 ft 1 kts 311°
2026-05-01 08:45 51.88415 0.24586 362 ft 0 kts 313°
2026-05-01 08:48 51.88425 0.24569 358 ft 8 kts 313°
2026-05-01 08:48 51.88504 0.24430 360 ft 24 kts 313°
2026-05-01 08:49 51.88529 0.24351 358 ft 4 kts 265°
2026-05-01 08:49 51.88519 0.24307 360 ft 5 kts 243°
2026-05-01 08:49 51.88478 0.24233 361 ft 13 kts 225°
2026-05-01 08:49 51.88389 0.24089 361 ft 23 kts 225°
2026-05-01 08:50 51.88253 0.23877 358 ft 31 kts 218°
2026-05-01 08:50 51.88135 0.23714 361 ft 12 kts 221°
2026-05-01 08:50 51.88074 0.23625 358 ft 12 kts 221°
2026-05-01 08:50 51.88013 0.23537 360 ft 12 kts 221°
2026-05-01 08:51 51.87951 0.23439 362 ft 14 kts 224°
2026-05-01 08:51 51.87873 0.23319 362 ft 17 kts 221°
2026-05-01 08:51 51.87776 0.23182 361 ft 19 kts 221°
2026-05-01 08:51 51.87740 0.23023 360 ft 15 kts 292°
2026-05-01 08:52 51.87781 0.22907 359 ft 7 kts 261°
2026-05-01 08:52 51.87746 0.22837 361 ft 9 kts 225°
2026-05-01 08:52 51.87690 0.22751 360 ft 13 kts 223°
2026-05-01 08:52 51.87614 0.22636 362 ft 17 kts 223°
2026-05-01 08:53 51.87513 0.22485 356 ft 23 kts 223°
2026-05-01 08:53 51.87407 0.22295 349 ft 19 kts 251°
2026-05-01 08:53 51.87425 0.22169 354 ft 0 kts 308°
2026-05-01 08:54 51.87459 0.22101 335 ft 18 kts 308°
2026-05-01 08:54 51.87520 0.22031 336 ft 6 kts 10°
2026-05-01 08:54 51.87585 0.22108 351 ft 24 kts 45°
2026-05-01 08:54 51.87854 0.22512 354 ft 87 kts 43°
2026-05-01 08:55 51.88456 0.23416 357 ft 147 kts 43°
2026-05-01 08:55 51.89287 0.24688 565 ft 170 kts 45°
2026-05-01 08:55 51.90175 0.26016 991 ft 178 kts 47°
2026-05-01 08:55 51.91087 0.27410 1527 ft 183 kts 47°
2026-05-01 08:56 51.92036 0.28825 2087 ft 190 kts 41°
2026-05-01 08:56 51.93286 0.29863 2347 ft 217 kts 14°
2026-05-01 08:56 51.94878 0.29866 2602 ft 245 kts 345°
2026-05-01 08:56 51.96388 0.28451 3086 ft 260 kts 309°
2026-05-01 08:57 51.97181 0.25851 3778 ft 261 kts 278°
2026-05-01 08:57 51.97462 0.22919 4496 ft 266 kts 274°
2026-05-01 08:57 51.97687 0.19934 5407 ft 267 kts 275°
2026-05-01 08:57 51.97922 0.16947 6302 ft 268 kts 275°
2026-05-01 08:58 51.98186 0.13932 7081 ft 272 kts 276°
2026-05-01 08:58 51.98485 0.10916 7781 ft 277 kts 276°
2026-05-01 08:58 51.98809 0.07802 8530 ft 282 kts 276°
2026-05-01 08:58 51.98875 0.04606 9095 ft 282 kts 256°
2026-05-01 08:59 51.98431 0.01526 9657 ft 287 kts 254°
2026-05-01 08:59 51.97991 -0.01658 10358 ft 294 kts 255°
2026-05-01 08:59 51.97546 -0.05049 10607 ft 316 kts 255°
2026-05-01 08:59 51.97076 -0.08680 10800 ft 341 kts 255°
2026-05-01 09:00 51.96574 -0.12511 11024 ft 363 kts 255°
2026-05-01 09:00 51.96041 -0.16598 11627 ft 374 kts 255°
2026-05-01 09:00 51.95497 -0.20771 12446 ft 381 kts 255°
2026-05-01 09:00 51.94947 -0.24990 13413 ft 384 kts 255°
2026-05-01 09:01 51.94384 -0.29297 14329 ft 388 kts 254°
2026-05-01 09:01 51.93818 -0.33607 15105 ft 393 kts 254°
2026-05-01 09:01 51.93244 -0.37954 15904 ft 397 kts 254°
2026-05-01 09:01 51.92661 -0.42355 16685 ft 402 kts 254°
2026-05-01 09:02 51.92069 -0.46811 17463 ft 407 kts 254°
2026-05-01 09:02 51.91469 -0.51317 18216 ft 412 kts 254°
2026-05-01 09:02 51.90860 -0.55876 18911 ft 416 kts 254°
2026-05-01 09:02 51.90243 -0.60481 19564 ft 421 kts 254°
2026-05-01 09:03 51.89625 -0.65071 20211 ft 424 kts 254°
2026-05-01 09:03 51.88993 -0.69759 20842 ft 428 kts 254°
2026-05-01 09:03 51.88354 -0.74485 21478 ft 433 kts 254°
2026-05-01 09:03 51.87705 -0.79272 22109 ft 437 kts 254°
2026-05-01 09:04 51.87047 -0.84109 22738 ft 442 kts 254°
2026-05-01 09:04 51.86382 -0.88985 23347 ft 446 kts 253°
2026-05-01 09:04 51.85696 -0.93897 23912 ft 448 kts 252°
2026-05-01 09:04 51.84653 -0.98634 24347 ft 448 kts 240°
2026-05-01 09:05 51.83079 -1.02978 24880 ft 447 kts 231°
2026-05-01 09:05 51.81102 -1.06829 25432 ft 444 kts 222°
2026-05-01 09:05 51.78898 -1.10339 25972 ft 446 kts 221°
2026-05-01 09:05 51.76670 -1.13857 26439 ft 450 kts 221°
2026-05-01 09:06 51.74433 -1.17423 26937 ft 454 kts 222°
2026-05-01 09:06 51.72194 -1.21038 27423 ft 458 kts 222°
2026-05-01 09:06 51.69944 -1.24695 27917 ft 461 kts 223°
2026-05-01 09:06 51.67679 -1.28377 28392 ft 464 kts 223°
2026-05-01 09:07 51.65520 -1.32245 28697 ft 469 kts 233°
2026-05-01 09:07 51.64053 -1.37000 28971 ft 482 kts 250°
2026-05-01 09:07 51.63523 -1.42370 29404 ft 490 kts 267°
2026-05-01 09:07 51.63829 -1.47837 29912 ft 496 kts 279°
2026-05-01 09:08 51.64994 -1.53082 30390 ft 500 kts 296°
2026-05-01 09:08 51.66743 -1.57919 30905 ft 498 kts 299°
2026-05-01 09:08 51.68449 -1.62758 31398 ft 495 kts 294°
2026-05-01 09:08 51.69786 -1.67844 31877 ft 492 kts 286°
2026-05-01 09:09 51.70690 -1.73143 32351 ft 488 kts 280°
2026-05-01 09:09 51.71218 -1.78525 32827 ft 484 kts 273°
2026-05-01 09:09 51.71534 -1.83920 33278 ft 483 kts 274°
2026-05-01 09:09 51.71881 -1.89299 33706 ft 482 kts 274°
2026-05-01 09:10 51.72253 -1.94675 34134 ft 482 kts 274°
2026-05-01 09:10 51.72638 -2.00062 34155 ft 486 kts 274°
2026-05-01 09:10 51.73408 -2.10847 34159 ft 481 kts 274°
2026-05-01 09:11 51.74156 -2.21540 34157 ft 479 kts 274°
2026-05-01 09:11 51.74887 -2.32226 34166 ft 479 kts 274°
2026-05-01 09:12 51.75607 -2.42910 34164 ft 479 kts 274°
2026-05-01 09:12 51.76316 -2.53610 34186 ft 480 kts 274°
2026-05-01 09:13 51.77014 -2.64257 34199 ft 480 kts 274°
2026-05-01 09:13 51.77707 -2.74982 34211 ft 481 kts 274°
2026-05-01 09:14 51.78391 -2.85721 34217 ft 481 kts 274°
2026-05-01 09:14 51.79067 -2.96506 34227 ft 486 kts 274°
2026-05-01 09:15 51.79744 -3.07490 34219 ft 496 kts 273°
2026-05-01 09:15 51.80423 -3.18627 34196 ft 499 kts 273°
2026-05-01 09:16 51.81093 -3.29807 34193 ft 499 kts 273°
2026-05-01 09:17 51.82079 -3.46580 34167 ft 499 kts 273°
2026-05-01 09:17 51.83620 -3.63243 34173 ft 502 kts 279°
2026-05-01 09:18 51.85840 -3.79787 34179 ft 502 kts 279°
2026-05-01 09:19 51.87986 -3.96386 34174 ft 503 kts 278°
2026-05-01 09:20 51.90081 -4.13012 34178 ft 503 kts 278°
2026-05-01 09:21 51.92836 -4.35144 34184 ft 503 kts 278°
2026-05-01 09:21 51.94883 -4.51823 34172 ft 503 kts 278°
2026-05-01 09:22 51.97579 -4.74107 34176 ft 504 kts 277°
2026-05-01 09:23 51.99577 -4.90854 34184 ft 505 kts 277°
2026-05-01 09:24 52.02366 -5.07464 34182 ft 512 kts 289°
2026-05-01 09:25 52.09439 -5.27734 34180 ft 517 kts 298°
2026-05-01 09:26 52.15026 -5.42765 34176 ft 518 kts 297°
2026-05-01 09:26 52.20539 -5.57905 34171 ft 518 kts 297°
2026-05-01 09:27 52.25604 -5.73399 34162 ft 513 kts 287°
2026-05-01 09:28 52.28132 -5.84272 34168 ft 513 kts 286°
2026-05-01 09:28 52.30622 -5.95195 34166 ft 514 kts 286°
2026-05-01 09:29 52.34394 -6.11530 34156 ft 515 kts 286°
2026-05-01 09:30 52.38205 -6.27993 34150 ft 516 kts 286°
2026-05-01 09:30 52.41590 -6.42731 34154 ft 517 kts 285°
2026-05-01 09:31 52.44094 -6.53712 34151 ft 518 kts 285°
2026-05-01 09:32 52.47861 -6.70338 34149 ft 519 kts 285°
2026-05-01 09:32 52.51615 -6.87037 34146 ft 521 kts 285°
2026-05-01 09:33 52.54107 -6.98196 34143 ft 521 kts 285°
2026-05-01 09:34 52.57834 -7.15000 34129 ft 522 kts 284°
2026-05-01 09:34 52.61542 -7.31849 34136 ft 522 kts 284°
2026-05-01 09:35 52.65228 -7.48738 34127 ft 523 kts 284°
2026-05-01 09:36 52.67674 -7.60027 34128 ft 523 kts 284°
2026-05-01 09:36 52.70112 -7.71335 34127 ft 523 kts 283°
2026-05-01 09:37 52.72538 -7.82652 34126 ft 524 kts 283°
2026-05-01 09:37 52.76159 -7.99665 34118 ft 524 kts 283°
2026-05-01 09:38 52.79758 -8.16716 34119 ft 524 kts 283°
2026-05-01 09:39 52.83333 -8.33798 34115 ft 525 kts 283°
2026-05-01 09:39 52.85708 -8.45223 34107 ft 525 kts 282°
2026-05-01 09:40 52.89233 -8.62310 34113 ft 526 kts 282°
2026-05-01 09:41 52.91583 -8.73780 34105 ft 526 kts 282°
2026-05-01 09:41 52.95096 -8.91053 34103 ft 527 kts 282°
2026-05-01 09:42 52.97426 -9.02589 34101 ft 528 kts 282°
2026-05-01 09:43 53.02055 -9.25722 34101 ft 528 kts 282°
2026-05-01 09:43 53.04356 -9.37321 34093 ft 528 kts 281°
2026-05-01 09:44 53.07783 -9.54732 34093 ft 528 kts 281°
2026-05-01 09:45 53.10054 -9.66355 34094 ft 528 kts 281°
2026-05-01 09:45 53.13438 -9.83806 34094 ft 528 kts 281°
2026-05-01 09:46 53.15678 -9.95448 34092 ft 528 kts 281°
2026-05-01 09:46 53.17908 -10.07106 34093 ft 528 kts 281°
2026-05-01 09:47 53.20125 -10.18767 34092 ft 528 kts 281°
2026-05-01 09:47 53.22332 -10.30453 34089 ft 528 kts 281°
2026-05-01 09:48 53.24513 -10.42070 34092 ft 528 kts 282°
2026-05-01 09:48 53.26698 -10.53782 34083 ft 528 kts 282°
2026-05-01 09:49 53.28870 -10.65498 34082 ft 528 kts 282°
2026-05-01 09:49 53.31033 -10.77232 34078 ft 528 kts 282°
2026-05-01 09:50 53.33178 -10.88953 34077 ft 527 kts 282°
2026-05-01 09:50 53.35313 -11.00684 34068 ft 526 kts 282°
2026-05-01 09:51 53.37432 -11.12411 34070 ft 526 kts 282°
2026-05-01 09:51 53.39537 -11.24132 34074 ft 525 kts 282°
2026-05-01 09:52 53.41630 -11.35863 34062 ft 525 kts 282°
2026-05-01 09:52 53.43709 -11.47590 34067 ft 524 kts 282°
2026-05-01 09:53 53.45775 -11.59318 34052 ft 524 kts 282°
2026-05-01 09:53 53.47827 -11.71049 34059 ft 524 kts 282°
2026-05-01 09:54 53.49853 -11.82703 34050 ft 523 kts 282°
2026-05-01 09:54 53.51879 -11.94436 34052 ft 523 kts 282°
2026-05-01 09:55 53.53892 -12.06170 34054 ft 523 kts 283°
2026-05-01 09:55 53.55895 -12.17926 34050 ft 523 kts 283°
2026-05-01 09:56 53.57887 -12.29693 34056 ft 523 kts 283°
2026-05-01 09:56 53.59868 -12.41475 34051 ft 523 kts 283°
2026-05-01 09:57 53.61839 -12.53275 34048 ft 523 kts 283°
2026-05-01 09:57 53.63796 -12.65075 34057 ft 523 kts 283°
2026-05-01 09:58 53.65742 -12.76893 34060 ft 523 kts 283°
2026-05-01 09:58 53.67677 -12.88719 34066 ft 523 kts 283°
2026-05-01 09:59 53.69596 -13.00535 34067 ft 522 kts 283°
2026-05-01 09:59 53.71504 -13.12361 34072 ft 522 kts 283°
2026-05-01 10:00 53.73397 -13.24180 34072 ft 522 kts 284°
2026-05-01 10:00 53.75279 -13.36015 34079 ft 522 kts 283°
2026-05-01 10:01 53.77152 -13.47868 34080 ft 522 kts 284°
2026-05-01 10:01 53.79014 -13.59743 34070 ft 523 kts 283°
2026-05-01 10:02 53.80865 -13.71638 34090 ft 523 kts 283°
2026-05-01 10:02 53.82704 -13.83540 34089 ft 523 kts 283°
2026-05-01 10:03 53.84534 -13.95470 34090 ft 524 kts 284°
2026-05-01 10:03 53.86353 -14.07413 34103 ft 523 kts 284°
2026-05-01 10:04 53.88156 -14.19338 34091 ft 522 kts 284°
2026-05-01 10:04 53.89943 -14.31250 34109 ft 520 kts 284°
2026-05-01 10:05 53.91711 -14.43119 34107 ft 518 kts 284°
2026-05-01 10:05 53.93449 -14.54877 34114 ft 516 kts 284°
2026-05-01 10:06 53.95182 -14.66687 34124 ft 515 kts 285°
2026-05-01 10:06 53.96910 -14.78555 34131 ft 513 kts 285°
2026-05-01 10:07 53.98611 -14.90317 34127 ft 512 kts 285°
2026-05-01 10:07 54.00038 -15.02138 34143 ft 511 kts 278°
2026-05-01 10:08 54.00470 -15.20154 34461 ft 509 kts 273°
2026-05-01 10:08 54.00547 -15.26145 34927 ft 503 kts 273°
2026-05-01 10:09 54.00628 -15.32066 35406 ft 498 kts 273°
2026-05-01 10:09 54.00718 -15.37938 35808 ft 496 kts 273°
2026-05-01 10:09 54.00813 -15.43781 36079 ft 496 kts 273°
2026-05-01 10:10 54.01011 -15.55547 36155 ft 498 kts 274°
2026-05-01 10:10 54.01291 -15.73243 36187 ft 504 kts 274°
2026-05-01 10:11 54.01463 -15.85249 36181 ft 511 kts 273°
2026-05-01 10:11 54.01622 -15.97369 36173 ft 514 kts 273°
2026-05-01 10:12 54.01744 -16.07465 36187 ft 514 kts 273°
2026-05-01 10:13 54.01965 -16.27718 36182 ft 512 kts 273°
2026-05-01 10:13 54.02083 -16.39822 36181 ft 511 kts 273°
2026-05-01 10:14 54.02235 -16.57919 36192 ft 509 kts 273°
2026-05-01 10:14 54.02321 -16.69949 36202 ft 508 kts 273°
2026-05-01 10:15 54.02395 -16.81970 36207 ft 508 kts 273°
2026-05-01 10:15 54.02457 -16.93949 36207 ft 507 kts 273°
2026-05-01 10:16 54.02506 -17.05935 36208 ft 506 kts 273°
2026-05-01 10:17 54.02558 -17.23864 36211 ft 505 kts 272°
2026-05-01 10:17 54.02584 -17.41767 36221 ft 504 kts 272°
2026-05-01 10:18 54.02585 -17.57638 36225 ft 504 kts 272°
2026-05-01 10:19 54.02572 -17.69548 36229 ft 504 kts 272°
2026-05-01 10:19 54.02547 -17.81461 36233 ft 503 kts 272°
2026-05-01 10:20 54.02487 -17.99300 36235 ft 503 kts 272°
2026-05-01 10:20 54.02433 -18.11198 36240 ft 503 kts 272°
2026-05-01 10:21 54.02330 -18.29010 36245 ft 502 kts 272°
2026-05-01 10:22 54.02200 -18.46781 36250 ft 501 kts 271°
2026-05-01 10:23 54.02045 -18.64464 36254 ft 500 kts 271°
2026-05-01 10:23 54.01864 -18.82187 36259 ft 499 kts 271°
2026-05-01 10:24 54.01583 -19.05776 36264 ft 498 kts 271°
2026-05-01 10:25 54.01256 -19.29291 36270 ft 497 kts 271°
2026-05-01 10:26 54.01076 -19.41022 36275 ft 496 kts 270°
2026-05-01 10:27 54.00683 -19.64428 36278 ft 495 kts 270°
2026-05-01 10:28 54.00360 -19.81935 36283 ft 493 kts 270°
2026-05-01 10:28 54.00010 -19.99400 36285 ft 493 kts 269°
2026-05-01 10:29 53.99091 -20.16808 36288 ft 493 kts 265°
2026-05-01 10:30 53.97671 -20.39890 36292 ft 493 kts 265°
2026-05-01 10:31 53.96261 -20.63024 36298 ft 492 kts 265°
2026-05-01 10:32 53.95177 -20.80362 36300 ft 492 kts 265°
2026-05-01 10:33 53.93692 -21.03439 36303 ft 491 kts 265°
2026-05-01 10:34 53.92550 -21.20721 36303 ft 491 kts 265°
2026-05-01 10:34 53.91777 -21.32223 36306 ft 491 kts 265°
2026-05-01 10:35 53.90594 -21.49466 36313 ft 491 kts 265°
2026-05-01 10:35 53.89792 -21.60960 36312 ft 491 kts 265°
2026-05-01 10:36 53.88571 -21.78184 36320 ft 491 kts 265°
2026-05-01 10:37 53.87742 -21.89668 36317 ft 491 kts 265°
2026-05-01 10:37 53.86475 -22.06900 36324 ft 491 kts 265°
2026-05-01 10:38 53.85622 -22.18316 36326 ft 492 kts 265°
2026-05-01 10:38 53.84755 -22.29807 36328 ft 492 kts 265°
2026-05-01 10:39 53.83874 -22.41295 36334 ft 492 kts 264°
2026-05-01 10:39 53.82983 -22.52784 36332 ft 492 kts 264°
2026-05-01 10:40 53.82080 -22.64279 36339 ft 492 kts 264°
2026-05-01 10:40 53.81166 -22.75767 36337 ft 492 kts 264°
2026-05-01 10:41 53.80240 -22.87247 36339 ft 492 kts 264°
2026-05-01 10:42 53.78831 -23.04453 36342 ft 492 kts 264°
2026-05-01 10:42 53.77879 -23.15917 36347 ft 492 kts 264°
2026-05-01 10:43 53.76917 -23.27373 36352 ft 492 kts 264°
2026-05-01 10:43 53.75942 -23.38825 36358 ft 492 kts 264°
2026-05-01 10:44 53.74957 -23.50270 36355 ft 492 kts 264°
2026-05-01 10:44 53.73962 -23.61700 36359 ft 492 kts 264°
2026-05-01 10:45 53.72956 -23.73134 36363 ft 492 kts 264°
2026-05-01 10:45 53.71939 -23.84555 36365 ft 492 kts 264°
2026-05-01 10:46 53.70911 -23.95979 36367 ft 492 kts 264°
2026-05-01 10:46 53.69873 -24.07387 36370 ft 492 kts 264°
2026-05-01 10:47 53.68824 -24.18783 36378 ft 492 kts 264°
2026-05-01 10:47 53.67765 -24.30175 36377 ft 492 kts 263°
2026-05-01 10:48 53.66694 -24.41561 36377 ft 491 kts 263°
2026-05-01 10:48 53.65621 -24.52860 36384 ft 491 kts 263°
2026-05-01 10:49 53.64529 -24.64237 36383 ft 491 kts 263°
2026-05-01 10:49 53.63428 -24.75596 36380 ft 491 kts 263°
2026-05-01 10:50 53.62315 -24.86951 36385 ft 491 kts 263°
2026-05-01 10:50 53.61192 -24.98304 36393 ft 491 kts 263°
2026-05-01 10:51 53.60058 -25.09646 36390 ft 492 kts 263°
2026-05-01 10:51 53.58911 -25.20998 36395 ft 492 kts 263°
2026-05-01 10:52 53.57755 -25.32341 36397 ft 492 kts 263°
2026-05-01 10:52 53.56585 -25.43698 36404 ft 493 kts 263°
2026-05-01 10:53 53.55404 -25.55057 36400 ft 493 kts 263°
2026-05-01 10:53 53.54210 -25.66430 36407 ft 494 kts 263°
2026-05-01 10:54 53.53012 -25.77728 36408 ft 495 kts 263°
2026-05-01 10:54 53.51794 -25.89114 36407 ft 496 kts 263°
2026-05-01 10:55 53.50562 -26.00518 36418 ft 496 kts 263°
2026-05-01 10:55 53.49318 -26.11929 36411 ft 497 kts 263°
2026-05-01 10:56 53.48061 -26.23353 36422 ft 498 kts 263°
2026-05-01 10:56 53.46792 -26.34782 36428 ft 498 kts 263°
2026-05-01 10:57 53.45511 -26.46209 36429 ft 499 kts 263°
2026-05-01 10:57 53.44217 -26.57648 36426 ft 499 kts 263°
2026-05-01 10:58 53.42910 -26.69096 36421 ft 500 kts 263°
2026-05-01 10:58 53.41592 -26.80543 36426 ft 500 kts 262°
2026-05-01 10:59 53.40263 -26.91987 36438 ft 501 kts 262°
2026-05-01 10:59 53.38920 -27.03444 36443 ft 501 kts 262°
2026-05-01 11:00 53.37565 -27.14896 36444 ft 501 kts 262°
2026-05-01 11:00 53.36199 -27.26353 36440 ft 502 kts 262°
2026-05-01 11:01 53.34821 -27.37806 36442 ft 502 kts 262°
2026-05-01 11:01 53.33431 -27.49256 36446 ft 502 kts 262°
2026-05-01 11:02 53.32039 -27.60632 36447 ft 503 kts 262°
2026-05-01 11:02 53.30626 -27.72079 36451 ft 503 kts 262°
2026-05-01 11:03 53.29200 -27.83539 36442 ft 503 kts 262°
2026-05-01 11:03 53.27762 -27.94995 36452 ft 504 kts 262°
2026-05-01 11:04 53.26314 -28.06439 36448 ft 504 kts 262°
2026-05-01 11:04 53.24853 -28.17894 36452 ft 504 kts 262°
2026-05-01 11:05 53.23379 -28.29352 36451 ft 505 kts 262°
2026-05-01 11:05 53.21895 -28.40796 36460 ft 505 kts 262°
2026-05-01 11:06 53.20398 -28.52245 36459 ft 505 kts 262°
2026-05-01 11:06 53.18889 -28.63692 36463 ft 505 kts 261°
2026-05-01 11:07 53.16863 -28.78928 36465 ft 506 kts 261°
2026-05-01 11:07 53.15067 -28.92297 36468 ft 506 kts 261°
2026-05-01 11:08 53.13779 -29.01811 36467 ft 506 kts 261°
2026-05-01 11:09 53.11436 -29.18965 36472 ft 507 kts 261°
2026-05-01 11:09 53.09859 -29.30395 36476 ft 507 kts 261°
2026-05-01 11:10 53.07473 -29.47529 36475 ft 507 kts 261°
2026-05-01 11:10 53.05869 -29.58944 36481 ft 507 kts 261°
2026-05-01 11:11 53.04252 -29.70360 36479 ft 507 kts 260°
2026-05-01 11:11 53.02625 -29.81767 36476 ft 507 kts 260°
2026-05-01 11:12 53.00988 -29.93168 36484 ft 508 kts 260°
2026-05-01 11:12 52.99640 -30.04615 36482 ft 503 kts 268°
2026-05-01 11:13 52.98995 -30.16160 36481 ft 502 kts 269°
2026-05-01 11:13 52.98379 -30.27711 36488 ft 503 kts 268°
2026-05-01 11:14 52.97723 -30.39274 36492 ft 503 kts 268°
2026-05-01 11:14 52.97032 -30.50834 36491 ft 503 kts 268°
2026-05-01 11:15 52.96323 -30.62393 36489 ft 504 kts 268°
2026-05-01 11:15 52.95605 -30.73942 36492 ft 504 kts 268°
2026-05-01 11:16 52.94877 -30.85492 36491 ft 504 kts 267°
2026-05-01 11:16 52.94138 -30.97039 36491 ft 504 kts 267°
2026-05-01 11:17 52.93388 -31.08578 36493 ft 504 kts 267°
2026-05-01 11:17 52.92627 -31.20113 36493 ft 503 kts 267°
2026-05-01 11:18 52.91855 -31.31637 36494 ft 503 kts 267°
2026-05-01 11:18 52.91072 -31.43162 36500 ft 503 kts 266°
2026-05-01 11:19 52.90277 -31.54692 36503 ft 503 kts 266°
2026-05-01 11:19 52.89471 -31.66207 36504 ft 504 kts 266°
2026-05-01 11:20 52.88654 -31.77726 36503 ft 504 kts 266°
2026-05-01 11:20 52.87826 -31.89239 36505 ft 504 kts 266°
2026-05-01 11:21 52.86998 -32.00560 36458 ft 485 kts 265°
2026-05-01 11:21 52.86183 -32.11573 36506 ft 482 kts 265°
2026-05-01 11:22 52.85366 -32.22519 36507 ft 483 kts 265°
2026-05-01 11:22 52.84529 -32.33581 36513 ft 485 kts 264°
2026-05-01 11:23 52.83677 -32.44675 36510 ft 487 kts 264°
2026-05-01 11:23 52.82813 -32.55800 36510 ft 488 kts 264°
2026-05-01 11:24 52.81936 -32.66942 36510 ft 489 kts 264°
2026-05-01 11:25 52.80599 -32.83673 36513 ft 490 kts 264°
2026-05-01 11:25 52.79237 -33.00406 36520 ft 490 kts 263°
2026-05-01 11:26 52.77853 -33.17117 36513 ft 489 kts 263°
2026-05-01 11:27 52.76918 -33.28244 36523 ft 489 kts 263°
2026-05-01 11:27 52.75973 -33.39359 36523 ft 489 kts 263°
2026-05-01 11:28 52.75018 -33.50476 36527 ft 489 kts 263°
2026-05-01 11:28 52.74052 -33.61585 36529 ft 489 kts 263°
2026-05-01 11:29 52.72583 -33.78247 36518 ft 489 kts 262°
2026-05-01 11:30 52.71091 -33.94887 36522 ft 489 kts 262°
2026-05-01 11:30 52.70084 -34.05978 36529 ft 489 kts 262°
2026-05-01 11:31 52.69067 -34.17058 36521 ft 489 kts 262°
2026-05-01 11:31 52.68046 -34.28060 36521 ft 489 kts 262°
2026-05-01 11:32 52.67008 -34.39124 36520 ft 488 kts 262°
2026-05-01 11:32 52.65961 -34.50181 36530 ft 488 kts 261°
2026-05-01 11:33 52.64903 -34.61230 36515 ft 489 kts 261°
2026-05-01 11:33 52.63834 -34.72286 36539 ft 489 kts 261°
2026-05-01 11:34 52.62755 -34.83333 36528 ft 489 kts 261°
2026-05-01 11:34 52.61664 -34.94398 36526 ft 490 kts 261°
2026-05-01 11:35 52.60561 -35.05468 36531 ft 491 kts 261°
2026-05-01 11:35 52.59447 -35.16541 36523 ft 491 kts 260°
2026-05-01 11:36 52.58320 -35.27636 36540 ft 492 kts 260°
2026-05-01 11:36 52.57182 -35.38730 36528 ft 492 kts 260°
2026-05-01 11:37 52.56033 -35.49823 36539 ft 493 kts 259°
2026-05-01 11:37 52.54872 -35.60921 36539 ft 493 kts 259°
2026-05-01 11:38 52.53701 -35.72022 36520 ft 493 kts 259°
2026-05-01 11:38 52.52518 -35.83120 36538 ft 494 kts 259°
2026-05-01 11:39 52.51325 -35.94221 36535 ft 494 kts 259°
2026-05-01 11:39 52.50119 -36.05327 36543 ft 494 kts 259°
2026-05-01 11:40 52.48903 -36.16425 36544 ft 494 kts 259°
2026-05-01 11:40 52.47684 -36.27457 36543 ft 495 kts 259°
2026-05-01 11:41 52.46447 -36.38552 36531 ft 495 kts 258°
2026-05-01 11:41 52.45199 -36.49642 36541 ft 495 kts 258°
2026-05-01 11:42 52.43939 -36.60742 36539 ft 495 kts 258°
2026-05-01 11:42 52.42668 -36.71838 36550 ft 495 kts 258°
2026-05-01 11:43 52.41387 -36.82927 36538 ft 495 kts 258°
2026-05-01 11:43 52.40096 -36.94011 36546 ft 496 kts 258°
2026-05-01 11:44 52.38139 -37.10630 36539 ft 496 kts 257°
2026-05-01 11:44 52.36818 -37.21721 36541 ft 496 kts 257°
2026-05-01 11:45 52.35488 -37.32803 36550 ft 497 kts 257°
2026-05-01 11:45 52.34146 -37.43890 36547 ft 497 kts 257°
2026-05-01 11:46 52.32791 -37.54989 36551 ft 498 kts 257°
2026-05-01 11:46 52.31426 -37.66077 36542 ft 498 kts 257°
2026-05-01 11:47 52.30050 -37.77173 36548 ft 498 kts 257°
2026-05-01 11:47 52.28661 -37.88274 36557 ft 499 kts 256°
2026-05-01 11:48 52.27261 -37.99371 36548 ft 499 kts 256°
2026-05-01 11:48 52.25852 -38.10458 36551 ft 500 kts 256°
2026-05-01 11:49 52.24427 -38.21573 36547 ft 500 kts 256°
2026-05-01 11:49 52.22993 -38.32681 36543 ft 501 kts 256°
2026-05-01 11:50 52.21554 -38.43730 36547 ft 501 kts 256°
2026-05-01 11:50 52.20095 -38.54852 36557 ft 502 kts 256°
2026-05-01 11:51 52.18624 -38.65971 36548 ft 502 kts 255°
2026-05-01 11:51 52.17142 -38.77096 36555 ft 503 kts 255°
2026-05-01 11:52 52.15648 -38.88217 36547 ft 503 kts 255°
2026-05-01 11:52 52.14144 -38.99336 36549 ft 503 kts 255°
2026-05-01 11:53 52.12627 -39.10454 36552 ft 503 kts 255°
2026-05-01 11:53 52.11101 -39.21567 36552 ft 504 kts 255°
2026-05-01 11:54 52.09561 -39.32688 36550 ft 504 kts 255°
2026-05-01 11:54 52.08263 -39.42004 36550 ft 504 kts 255°
2026-05-01 11:55 52.06704 -39.53114 36553 ft 505 kts 254°
2026-05-01 11:55 52.05142 -39.64161 36549 ft 505 kts 254°
2026-05-01 11:56 52.03558 -39.75286 36544 ft 505 kts 254°
2026-05-01 11:56 52.01965 -39.86402 36546 ft 506 kts 254°
2026-05-01 11:57 52.00365 -39.97527 36547 ft 506 kts 255°
2026-05-01 11:57 51.99386 -40.08871 36549 ft 509 kts 262°
2026-05-01 11:58 51.98779 -40.20325 36553 ft 510 kts 262°
2026-05-01 11:59 51.97837 -40.37523 36551 ft 510 kts 262°
2026-05-01 11:59 51.97161 -40.48972 36549 ft 510 kts 262°
2026-05-01 12:00 51.96112 -40.66138 36550 ft 510 kts 261°
2026-05-01 12:01 51.95041 -40.83287 36553 ft 510 kts 261°
2026-05-01 12:01 51.94315 -40.94708 36553 ft 509 kts 261°
2026-05-01 12:02 51.93579 -41.06121 36550 ft 509 kts 261°
2026-05-01 12:02 51.92831 -41.17527 36552 ft 509 kts 261°
2026-05-01 12:03 51.92073 -41.28924 36550 ft 509 kts 261°
2026-05-01 12:03 51.91304 -41.40314 36549 ft 508 kts 261°
2026-05-01 12:04 51.90525 -41.51696 36543 ft 508 kts 261°
2026-05-01 12:04 51.89740 -41.62988 36546 ft 508 kts 261°
2026-05-01 12:05 51.88940 -41.74342 36546 ft 508 kts 260°
2026-05-01 12:05 51.87720 -41.91358 36547 ft 507 kts 260°
2026-05-01 12:06 51.86894 -42.02687 36544 ft 507 kts 260°
2026-05-01 12:06 51.86057 -42.14007 36542 ft 507 kts 260°
2026-05-01 12:07 51.85210 -42.25318 36540 ft 506 kts 260°
2026-05-01 12:07 51.84353 -42.36607 36537 ft 506 kts 260°
2026-05-01 12:08 51.83486 -42.47884 36548 ft 505 kts 260°
2026-05-01 12:08 51.82609 -42.59151 36551 ft 505 kts 259°
2026-05-01 12:09 51.81722 -42.70401 36542 ft 504 kts 259°
2026-05-01 12:09 51.80825 -42.81633 36535 ft 504 kts 259°
2026-05-01 12:10 51.79461 -42.98453 36542 ft 503 kts 259°
2026-05-01 12:11 51.78077 -43.15226 36536 ft 502 kts 259°
2026-05-01 12:11 51.77142 -43.26389 36536 ft 501 kts 259°
2026-05-01 12:12 51.76198 -43.37523 36537 ft 500 kts 259°
2026-05-01 12:12 51.75245 -43.48641 36537 ft 500 kts 259°
2026-05-01 12:13 51.74282 -43.59739 36534 ft 499 kts 259°
2026-05-01 12:13 51.73311 -43.70823 36537 ft 499 kts 259°
2026-05-01 12:14 51.72329 -43.81887 36533 ft 498 kts 259°
2026-05-01 12:14 51.71345 -43.92867 36533 ft 498 kts 259°
2026-05-01 12:15 51.70345 -44.03902 36530 ft 497 kts 259°
2026-05-01 12:15 51.69336 -44.14920 36533 ft 497 kts 259°
2026-05-01 12:16 51.68317 -44.25929 36533 ft 496 kts 259°
2026-05-01 12:16 51.67289 -44.36923 36533 ft 496 kts 259°
2026-05-01 12:17 51.66250 -44.47908 36529 ft 496 kts 259°
2026-05-01 12:17 51.65203 -44.58875 36529 ft 495 kts 259°
2026-05-01 12:18 51.64147 -44.69825 36528 ft 495 kts 259°
2026-05-01 12:18 51.63080 -44.80775 36530 ft 495 kts 259°
2026-05-01 12:19 51.62002 -44.91721 36528 ft 495 kts 259°
2026-05-01 12:19 51.60916 -45.02644 36525 ft 495 kts 259°
2026-05-01 12:20 51.59820 -45.13572 36525 ft 495 kts 259°
2026-05-01 12:20 51.58713 -45.24487 36525 ft 494 kts 259°
2026-05-01 12:21 51.57598 -45.35392 36523 ft 494 kts 258°
2026-05-01 12:21 51.56473 -45.46280 36527 ft 494 kts 258°
2026-05-01 12:22 51.55337 -45.57168 36519 ft 494 kts 258°
2026-05-01 12:22 51.54193 -45.68037 36520 ft 494 kts 258°
2026-05-01 12:23 51.53037 -45.78917 36524 ft 494 kts 258°
2026-05-01 12:23 51.51874 -45.89767 36520 ft 494 kts 258°
2026-05-01 12:24 51.50707 -46.00560 36521 ft 494 kts 258°
2026-05-01 12:24 51.49522 -46.11407 36521 ft 494 kts 258°
2026-05-01 12:25 51.47727 -46.27672 36518 ft 494 kts 258°
2026-05-01 12:26 51.46517 -46.38512 36516 ft 494 kts 258°
2026-05-01 12:26 51.44684 -46.54755 36514 ft 494 kts 258°
2026-05-01 12:27 51.42828 -46.70992 36517 ft 494 kts 258°
2026-05-01 12:28 51.40949 -46.87220 36512 ft 494 kts 258°
2026-05-01 12:29 51.39046 -47.03446 36510 ft 494 kts 258°
2026-05-01 12:29 51.37119 -47.19679 36508 ft 495 kts 257°
2026-05-01 12:30 51.35168 -47.35900 36510 ft 495 kts 257°
2026-05-01 12:31 51.33854 -47.46723 36506 ft 496 kts 257°
2026-05-01 12:31 51.32530 -47.57535 36505 ft 496 kts 257°
2026-05-01 12:32 51.31195 -47.68351 36504 ft 496 kts 257°
2026-05-01 12:32 51.29171 -47.84581 36499 ft 497 kts 257°
2026-05-01 12:33 51.27809 -47.95397 36498 ft 497 kts 257°
2026-05-01 12:33 51.26436 -48.06212 36498 ft 497 kts 257°
2026-05-01 12:34 51.25060 -48.16965 36500 ft 498 kts 257°
2026-05-01 12:34 51.23665 -48.27790 36497 ft 498 kts 257°
2026-05-01 12:35 51.22257 -48.38625 36497 ft 499 kts 257°
2026-05-01 12:35 51.20839 -48.49457 36494 ft 499 kts 257°
2026-05-01 12:36 51.19409 -48.60294 36490 ft 500 kts 257°
2026-05-01 12:36 51.17967 -48.71138 36489 ft 500 kts 257°
2026-05-01 12:37 51.16515 -48.81980 36490 ft 501 kts 257°
2026-05-01 12:37 51.15051 -48.92827 36490 ft 501 kts 257°
2026-05-01 12:38 51.13575 -49.03685 36488 ft 502 kts 257°
2026-05-01 12:38 51.12088 -49.14540 36485 ft 502 kts 257°
2026-05-01 12:39 51.10590 -49.25400 36483 ft 503 kts 257°
2026-05-01 12:39 51.09081 -49.36250 36481 ft 503 kts 257°
2026-05-01 12:40 51.07559 -49.47121 36480 ft 503 kts 257°
2026-05-01 12:40 51.06027 -49.57984 36475 ft 504 kts 257°
2026-05-01 12:41 51.04485 -49.68844 36473 ft 504 kts 256°
2026-05-01 12:41 51.03194 -49.77873 36472 ft 504 kts 256°
2026-05-01 12:42 51.01633 -49.88728 36468 ft 504 kts 256°
2026-05-01 12:42 51.00027 -49.99570 36472 ft 504 kts 254°
2026-05-01 12:43 50.97698 -50.10048 36469 ft 503 kts 248°
2026-05-01 12:43 50.95142 -50.20392 36463 ft 504 kts 248°
2026-05-01 12:44 50.92596 -50.30748 36459 ft 504 kts 248°
2026-05-01 12:45 50.87543 -50.51494 36455 ft 505 kts 248°
2026-05-01 12:45 50.85008 -50.61849 36449 ft 505 kts 248°
2026-05-01 12:46 50.82461 -50.72195 36447 ft 505 kts 248°
2026-05-01 12:46 50.79906 -50.82523 36443 ft 504 kts 248°
2026-05-01 12:47 50.77340 -50.92843 36435 ft 504 kts 248°
2026-05-01 12:47 50.74771 -51.03134 36433 ft 503 kts 248°
2026-05-01 12:48 50.72193 -51.13407 36431 ft 503 kts 248°
2026-05-01 12:48 50.69612 -51.23647 36433 ft 502 kts 247°
2026-05-01 12:49 50.67024 -51.33872 36425 ft 501 kts 247°
2026-05-01 12:49 50.64432 -51.44066 36426 ft 501 kts 247°
2026-05-01 12:50 50.61834 -51.54236 36423 ft 500 kts 247°
2026-05-01 12:50 50.59249 -51.64308 36422 ft 499 kts 247°
2026-05-01 12:51 50.56640 -51.74431 36418 ft 499 kts 247°
2026-05-01 12:52 50.52721 -51.89561 36415 ft 498 kts 246°
2026-05-01 12:52 50.49570 -52.05061 36410 ft 498 kts 259°
2026-05-01 12:53 50.48335 -52.21251 36404 ft 498 kts 262°
2026-05-01 12:54 50.47559 -52.32050 36407 ft 497 kts 262°
2026-05-01 12:54 50.46746 -52.42800 36934 ft 492 kts 262°
2026-05-01 12:54 50.46335 -52.48095 37540 ft 485 kts 262°
2026-05-01 12:55 50.45517 -52.58475 38439 ft 478 kts 262°
2026-05-01 12:55 50.45102 -52.63681 38396 ft 481 kts 262°
2026-05-01 12:56 50.44266 -52.74099 38410 ft 484 kts 261°
2026-05-01 12:56 50.43409 -52.84666 38402 ft 492 kts 261°
2026-05-01 12:57 50.42534 -52.95344 38397 ft 495 kts 261°
2026-05-01 12:57 50.41200 -53.11420 38390 ft 496 kts 261°
2026-05-01 12:58 50.40298 -53.22125 38384 ft 495 kts 261°
2026-05-01 12:59 50.38932 -53.38115 38383 ft 492 kts 261°
2026-05-01 12:59 50.37549 -53.54032 38379 ft 491 kts 261°
2026-05-01 13:00 50.36150 -53.69882 38374 ft 489 kts 261°
2026-05-01 13:01 50.34739 -53.85608 38372 ft 488 kts 260°
2026-05-01 13:02 50.33303 -54.01376 38370 ft 488 kts 260°
2026-05-01 13:07 50.22116 -55.16742 38329 ft 487 kts 259°
2026-05-01 13:08 50.21044 -55.27186 38330 ft 487 kts 258°
2026-05-01 13:08 50.19965 -55.37611 38330 ft 487 kts 258°
2026-05-01 13:09 50.18882 -55.47968 38333 ft 486 kts 258°
2026-05-01 13:09 50.17784 -55.58379 38327 ft 486 kts 258°
2026-05-01 13:10 50.16677 -55.68790 38330 ft 486 kts 258°
2026-05-01 13:10 50.15562 -55.79176 38316 ft 486 kts 258°
2026-05-01 13:11 50.14439 -55.89550 38312 ft 486 kts 258°
2026-05-01 13:11 50.13305 -55.99930 38316 ft 485 kts 258°
2026-05-01 13:12 50.12163 -56.10297 38311 ft 485 kts 258°
2026-05-01 13:12 50.11013 -56.20645 38300 ft 485 kts 258°
2026-05-01 13:13 50.09853 -56.30998 38303 ft 485 kts 258°
2026-05-01 13:13 50.08687 -56.41322 38297 ft 484 kts 258°
2026-05-01 13:14 50.07511 -56.51641 38294 ft 484 kts 258°
2026-05-01 13:14 50.06327 -56.61952 38293 ft 484 kts 258°
2026-05-01 13:15 50.05134 -56.72248 38289 ft 483 kts 257°
2026-05-01 13:15 50.03934 -56.82534 38289 ft 483 kts 257°
2026-05-01 13:16 50.02723 -56.92817 38279 ft 483 kts 257°
2026-05-01 13:16 50.01504 -57.03098 38278 ft 483 kts 257°
2026-05-01 13:17 49.99038 -57.23636 38262 ft 483 kts 257°
2026-05-01 13:18 49.97165 -57.39027 38254 ft 483 kts 257°
2026-05-01 13:18 49.95905 -57.49277 38250 ft 483 kts 257°
2026-05-01 13:19 49.94636 -57.59520 38230 ft 483 kts 257°
2026-05-01 13:20 49.92718 -57.74872 38236 ft 483 kts 257°
2026-05-01 13:20 49.91425 -57.85113 38221 ft 484 kts 257°
2026-05-01 13:21 49.89478 -58.00402 38211 ft 484 kts 256°
2026-05-01 13:21 49.88162 -58.10636 38207 ft 484 kts 256°
2026-05-01 13:22 49.86835 -58.20880 38210 ft 484 kts 256°
2026-05-01 13:22 49.85501 -58.31111 38201 ft 485 kts 256°
2026-05-01 13:23 49.84155 -58.41348 38203 ft 485 kts 256°
2026-05-01 13:23 49.82802 -58.51573 38206 ft 485 kts 256°
2026-05-01 13:24 49.81437 -58.61806 38203 ft 485 kts 256°
2026-05-01 13:25 49.79373 -58.77151 38190 ft 486 kts 256°
2026-05-01 13:25 49.77985 -58.87375 38186 ft 486 kts 256°
2026-05-01 13:26 49.76588 -58.97598 38195 ft 486 kts 256°
2026-05-01 13:26 49.75181 -59.07818 38192 ft 486 kts 256°
2026-05-01 13:27 49.73765 -59.18032 38184 ft 486 kts 255°
2026-05-01 13:27 49.71627 -59.33329 38184 ft 486 kts 255°
2026-05-01 13:28 49.69712 -59.46895 38176 ft 485 kts 255°
2026-05-01 13:29 49.66571 -59.68887 38169 ft 485 kts 255°
2026-05-01 13:31 49.62390 -59.97670 38161 ft 484 kts 255°
2026-05-01 13:32 49.58650 -60.22971 38157 ft 484 kts 255°
2026-05-01 13:33 49.54857 -60.48223 38149 ft 484 kts 254°
2026-05-01 13:34 49.51796 -60.68311 38141 ft 483 kts 254°
2026-05-01 13:35 49.49472 -60.83392 38134 ft 483 kts 254°
2026-05-01 13:36 49.47131 -60.98447 38127 ft 482 kts 254°
2026-05-01 13:36 49.44773 -61.13468 38117 ft 482 kts 253°
2026-05-01 13:37 49.43189 -61.23482 38110 ft 482 kts 253°
2026-05-01 13:37 49.41598 -61.33480 38106 ft 482 kts 253°
2026-05-01 13:38 49.39194 -61.48470 38100 ft 482 kts 253°
2026-05-01 13:39 49.37580 -61.58462 38098 ft 482 kts 253°
2026-05-01 13:39 49.35958 -61.68448 38095 ft 482 kts 253°
2026-05-01 13:40 49.34326 -61.78426 38090 ft 482 kts 253°
2026-05-01 13:40 49.32688 -61.88391 38088 ft 482 kts 252°
2026-05-01 13:41 49.31040 -61.98350 38085 ft 482 kts 252°
2026-05-01 13:41 49.29384 -62.08303 38084 ft 482 kts 252°
2026-05-01 13:42 49.27720 -62.18246 38074 ft 482 kts 252°
2026-05-01 13:42 49.26061 -62.28105 38074 ft 481 kts 252°
2026-05-01 13:43 49.24381 -62.38024 38063 ft 481 kts 252°
2026-05-01 13:43 49.22694 -62.47934 38059 ft 481 kts 252°
2026-05-01 13:44 49.21000 -62.57827 38054 ft 481 kts 251°
2026-05-01 13:44 49.19295 -62.67724 38049 ft 481 kts 251°
2026-05-01 13:45 49.17585 -62.77605 38039 ft 481 kts 251°
2026-05-01 13:45 49.15862 -62.87492 38026 ft 481 kts 251°
2026-05-01 13:46 49.14135 -62.97359 38032 ft 481 kts 251°
2026-05-01 13:46 49.12400 -63.07207 38017 ft 480 kts 251°
2026-05-01 13:47 49.10658 -63.17045 38012 ft 480 kts 251°
2026-05-01 13:47 49.08907 -63.26877 38004 ft 480 kts 250°
2026-05-01 13:48 49.07148 -63.36702 37996 ft 480 kts 250°
2026-05-01 13:48 49.05381 -63.46523 37985 ft 480 kts 250°
2026-05-01 13:49 49.03604 -63.56339 37977 ft 481 kts 250°
2026-05-01 13:49 49.01818 -63.66154 37972 ft 481 kts 250°
2026-05-01 13:50 49.00023 -63.75968 37964 ft 481 kts 250°
2026-05-01 13:50 48.98219 -63.85773 37957 ft 481 kts 250°
2026-05-01 13:51 48.96405 -63.95585 37962 ft 482 kts 250°
2026-05-01 13:51 48.94579 -64.05407 37966 ft 483 kts 250°
2026-05-01 13:52 48.92742 -64.15238 37967 ft 483 kts 250°
2026-05-01 13:52 48.90906 -64.25013 37970 ft 484 kts 250°
2026-05-01 13:53 48.89044 -64.34872 37953 ft 487 kts 250°
2026-05-01 13:53 48.86222 -64.49714 37957 ft 489 kts 249°
2026-05-01 13:54 48.84325 -64.59633 37948 ft 489 kts 249°
2026-05-01 13:54 48.82419 -64.69540 37945 ft 489 kts 249°
2026-05-01 13:55 48.80501 -64.79461 37951 ft 490 kts 249°
2026-05-01 13:55 48.78576 -64.89370 37944 ft 490 kts 249°
2026-05-01 13:56 48.76637 -64.99295 37943 ft 491 kts 249°
2026-05-01 13:56 48.74687 -65.09225 37927 ft 492 kts 249°
2026-05-01 13:57 48.73058 -65.17478 37916 ft 491 kts 249°
2026-05-01 13:57 48.70765 -65.29048 37911 ft 490 kts 249°
2026-05-01 13:58 48.68797 -65.38917 37899 ft 489 kts 249°
2026-05-01 13:58 48.66829 -65.48738 37900 ft 487 kts 249°
2026-05-01 13:59 48.64857 -65.58530 37889 ft 486 kts 249°
2026-05-01 13:59 48.62884 -65.68279 37893 ft 484 kts 249°
2026-05-01 14:00 48.60903 -65.78012 37860 ft 484 kts 249°
2026-05-01 14:00 48.58920 -65.87714 37878 ft 484 kts 249°
2026-05-01 14:01 48.56922 -65.97433 37851 ft 484 kts 248°
2026-05-01 14:01 48.54922 -66.07124 37848 ft 483 kts 248°
2026-05-01 14:02 48.52931 -66.16722 37858 ft 482 kts 248°
2026-05-01 14:02 48.50917 -66.26385 37849 ft 484 kts 248°
2026-05-01 14:03 48.48891 -66.36055 37834 ft 484 kts 248°
2026-05-01 14:03 48.46860 -66.45707 37841 ft 483 kts 248°
2026-05-01 14:04 48.44823 -66.55341 37841 ft 482 kts 248°
2026-05-01 14:04 48.43111 -66.63401 37839 ft 483 kts 248°
2026-05-01 14:05 48.40725 -66.74581 37830 ft 483 kts 248°
2026-05-01 14:05 48.38659 -66.84212 37832 ft 484 kts 248°
2026-05-01 14:06 48.36582 -66.93855 37832 ft 485 kts 247°
2026-05-01 14:06 48.34491 -67.03509 37832 ft 486 kts 247°
2026-05-01 14:07 48.32387 -67.13185 37820 ft 487 kts 247°
2026-05-01 14:08 48.29208 -67.27716 37820 ft 489 kts 247°
2026-05-01 14:08 48.27074 -67.37412 37826 ft 489 kts 247°
2026-05-01 14:09 48.24929 -67.47116 37826 ft 490 kts 247°
2026-05-01 14:09 48.22772 -67.56829 37809 ft 491 kts 247°
2026-05-01 14:10 48.20606 -67.66536 37820 ft 491 kts 247°
2026-05-01 14:10 48.18433 -67.76229 37811 ft 491 kts 247°
2026-05-01 14:11 48.16250 -67.85921 37808 ft 491 kts 247°
2026-05-01 14:11 48.12961 -68.00439 37805 ft 491 kts 247°
2026-05-01 14:12 48.10772 -68.10051 37808 ft 491 kts 247°
2026-05-01 14:12 48.08561 -68.19715 37799 ft 491 kts 247°
2026-05-01 14:13 48.06701 -68.27810 37794 ft 491 kts 247°
2026-05-01 14:13 48.04112 -68.39033 37792 ft 491 kts 247°
2026-05-01 14:14 48.01875 -68.48677 37787 ft 491 kts 246°
2026-05-01 14:14 47.99629 -68.58318 37791 ft 492 kts 246°
2026-05-01 14:15 47.97374 -68.67954 37801 ft 492 kts 246°
2026-05-01 14:15 47.95107 -68.77600 37798 ft 493 kts 246°
2026-05-01 14:16 47.92830 -68.87243 37800 ft 493 kts 246°
2026-05-01 14:16 47.90543 -68.96887 37810 ft 494 kts 246°
2026-05-01 14:17 47.88620 -69.04964 37806 ft 494 kts 246°
2026-05-01 14:17 47.86332 -69.14537 37804 ft 494 kts 246°
2026-05-01 14:18 47.84020 -69.24167 37818 ft 494 kts 246°
2026-05-01 14:18 47.81701 -69.33787 37811 ft 494 kts 246°
2026-05-01 14:19 47.79374 -69.43395 37816 ft 493 kts 246°
2026-05-01 14:19 47.77041 -69.52993 37818 ft 493 kts 246°
2026-05-01 14:20 47.73645 -69.67436 37821 ft 494 kts 248°
2026-05-01 14:21 47.71556 -69.77170 37822 ft 495 kts 248°
2026-05-01 14:21 47.69463 -69.86894 37829 ft 495 kts 248°
2026-05-01 14:22 47.66263 -70.01454 37819 ft 495 kts 248°
2026-05-01 14:22 47.64110 -70.11137 37823 ft 494 kts 248°
2026-05-01 14:23 47.61947 -70.20816 37831 ft 494 kts 248°
2026-05-01 14:23 47.59779 -70.30482 37827 ft 495 kts 248°
2026-05-01 14:24 47.57599 -70.40160 37817 ft 495 kts 248°
2026-05-01 14:24 47.55417 -70.49804 37819 ft 494 kts 247°
2026-05-01 14:25 47.53223 -70.59457 37810 ft 495 kts 247°
2026-05-01 14:25 47.51018 -70.69115 37817 ft 496 kts 247°
2026-05-01 14:26 47.47702 -70.83555 37794 ft 497 kts 247°
2026-05-01 14:27 47.45456 -70.93282 37792 ft 497 kts 247°
2026-05-01 14:27 47.43230 -71.02878 37789 ft 497 kts 247°
2026-05-01 14:28 47.39852 -71.17362 37796 ft 497 kts 247°
2026-05-01 14:28 47.37591 -71.27002 37806 ft 497 kts 247°
2026-05-01 14:29 47.35323 -71.36629 37809 ft 497 kts 247°
2026-05-01 14:30 47.30763 -71.55854 37835 ft 497 kts 247°
2026-05-01 14:31 47.27324 -71.70246 37846 ft 496 kts 247°
2026-05-01 14:31 47.25024 -71.79822 37858 ft 496 kts 247°
2026-05-01 14:32 47.22715 -71.89391 37868 ft 496 kts 247°
2026-05-01 14:32 47.20399 -71.98946 37877 ft 496 kts 247°
2026-05-01 14:33 47.18076 -72.08489 37890 ft 496 kts 247°
2026-05-01 14:33 47.15747 -72.18018 37895 ft 495 kts 247°
2026-05-01 14:34 47.13412 -72.27530 37900 ft 495 kts 247°
2026-05-01 14:34 47.11069 -72.37030 37905 ft 495 kts 247°
2026-05-01 14:35 47.08718 -72.46529 37909 ft 495 kts 247°
2026-05-01 14:35 47.06360 -72.56014 37909 ft 495 kts 247°
2026-05-01 14:36 47.03995 -72.65487 37922 ft 495 kts 247°
2026-05-01 14:36 47.01622 -72.74953 37912 ft 495 kts 247°
2026-05-01 14:37 46.99241 -72.84409 37923 ft 495 kts 247°
2026-05-01 14:37 46.96852 -72.93859 37930 ft 495 kts 247°
2026-05-01 14:38 46.94453 -73.03310 37929 ft 495 kts 247°
2026-05-01 14:38 46.92064 -73.12683 37928 ft 495 kts 247°
2026-05-01 14:39 46.89650 -73.22115 37931 ft 495 kts 247°
2026-05-01 14:39 46.87226 -73.31545 37928 ft 495 kts 247°
2026-05-01 14:40 46.84797 -73.40958 37935 ft 495 kts 247°
2026-05-01 14:40 46.82359 -73.50368 37933 ft 495 kts 246°
2026-05-01 14:41 46.79916 -73.59758 37936 ft 495 kts 246°
2026-05-01 14:41 46.77463 -73.69150 37937 ft 495 kts 246°
2026-05-01 14:42 46.75005 -73.78522 37937 ft 495 kts 246°
2026-05-01 14:42 46.72537 -73.87891 37936 ft 495 kts 246°
2026-05-01 14:43 46.70062 -73.97253 37946 ft 495 kts 246°
2026-05-01 14:43 46.67581 -74.06599 37945 ft 495 kts 246°
2026-05-01 14:44 46.65092 -74.15936 37943 ft 495 kts 246°
2026-05-01 14:44 46.61345 -74.29927 37951 ft 495 kts 246°
2026-05-01 14:45 46.57601 -74.43826 37947 ft 494 kts 246°
2026-05-01 14:46 46.55082 -74.53129 37953 ft 494 kts 246°
2026-05-01 14:46 46.51294 -74.67052 37955 ft 494 kts 246°
2026-05-01 14:47 46.48758 -74.76328 37956 ft 494 kts 246°
2026-05-01 14:48 46.44941 -74.90223 37959 ft 494 kts 246°
2026-05-01 14:48 46.41107 -75.04097 37955 ft 494 kts 246°
2026-05-01 14:49 46.35968 -75.22571 37960 ft 494 kts 246°
2026-05-01 14:50 46.30798 -75.41015 37964 ft 494 kts 246°
2026-05-01 14:51 46.26902 -75.54822 37971 ft 495 kts 246°
2026-05-01 14:52 46.22986 -75.68620 37958 ft 495 kts 246°
2026-05-01 14:53 46.19053 -75.82400 37966 ft 495 kts 246°
2026-05-01 14:53 46.16422 -75.91574 37969 ft 495 kts 246°
2026-05-01 14:54 46.13782 -76.00745 37974 ft 495 kts 246°
2026-05-01 14:54 46.11156 -76.09835 37972 ft 495 kts 246°
2026-05-01 14:55 46.08505 -76.18979 37968 ft 494 kts 246°
2026-05-01 14:55 46.05905 -76.27919 37968 ft 475 kts 246°
2026-05-01 14:56 46.03330 -76.36734 37981 ft 474 kts 246°
2026-05-01 14:56 46.00785 -76.45412 37985 ft 474 kts 246°
2026-05-01 14:57 45.98216 -76.54143 37986 ft 474 kts 246°
2026-05-01 14:57 45.94357 -76.67208 37988 ft 474 kts 246°
2026-05-01 14:58 45.91776 -76.75907 37993 ft 474 kts 246°
2026-05-01 14:58 45.89187 -76.84603 37995 ft 474 kts 246°
2026-05-01 14:59 45.86590 -76.93291 38000 ft 474 kts 246°
2026-05-01 14:59 45.83988 -77.01971 38001 ft 474 kts 246°
2026-05-01 15:00 45.80074 -77.14971 38000 ft 473 kts 246°
2026-05-01 15:01 45.77457 -77.23624 37993 ft 473 kts 246°
2026-05-01 15:01 45.74837 -77.32257 38005 ft 473 kts 246°
2026-05-01 15:02 45.72211 -77.40882 38003 ft 472 kts 246°
2026-05-01 15:02 45.69579 -77.49501 37997 ft 472 kts 246°
2026-05-01 15:03 45.66943 -77.58104 38000 ft 473 kts 246°
2026-05-01 15:03 45.64610 -77.66878 37998 ft 472 kts 250°
2026-05-01 15:04 45.62829 -77.74257 37992 ft 472 kts 251°
2026-05-01 15:04 45.60688 -77.83128 37994 ft 473 kts 251°
2026-05-01 15:05 45.58522 -77.91996 37989 ft 473 kts 250°
2026-05-01 15:05 45.56339 -78.00850 37989 ft 473 kts 250°
2026-05-01 15:06 45.54145 -78.09704 37991 ft 473 kts 250°
2026-05-01 15:06 45.51945 -78.18553 37988 ft 473 kts 250°
2026-05-01 15:07 45.49738 -78.27393 37987 ft 473 kts 250°
2026-05-01 15:07 45.47525 -78.36227 37988 ft 473 kts 250°
2026-05-01 15:08 45.45309 -78.45039 37988 ft 473 kts 250°
2026-05-01 15:08 45.43087 -78.53839 37990 ft 472 kts 250°
2026-05-01 15:09 45.40858 -78.62637 37988 ft 472 kts 250°
2026-05-01 15:09 45.38624 -78.71417 37989 ft 472 kts 250°
2026-05-01 15:10 45.36387 -78.80178 37987 ft 471 kts 250°
2026-05-01 15:10 45.33022 -78.93293 37990 ft 470 kts 250°
2026-05-01 15:11 45.29663 -79.06312 37986 ft 470 kts 250°
2026-05-01 15:12 45.27393 -79.15070 37984 ft 469 kts 250°
2026-05-01 15:12 45.24001 -79.28095 37983 ft 469 kts 250°
2026-05-01 15:14 45.18339 -79.49673 37982 ft 468 kts 250°
2026-05-01 15:14 45.14916 -79.62629 37988 ft 468 kts 250°
2026-05-01 15:15 45.10328 -79.79878 37996 ft 468 kts 250°
2026-05-01 15:16 45.05717 -79.97088 38001 ft 468 kts 250°
2026-05-01 15:18 44.99921 -80.18548 38003 ft 467 kts 250°
2026-05-01 15:19 44.95259 -80.35671 37999 ft 467 kts 250°
2026-05-01 15:19 44.91748 -80.48489 38001 ft 466 kts 250°
2026-05-01 15:20 44.88226 -80.61276 38003 ft 466 kts 250°
2026-05-01 15:21 44.85874 -80.69781 38004 ft 466 kts 250°
2026-05-01 15:21 44.83516 -80.78277 38002 ft 465 kts 250°
2026-05-01 15:22 44.79969 -80.91005 37997 ft 465 kts 250°
2026-05-01 15:22 44.77599 -80.99475 37997 ft 465 kts 250°
2026-05-01 15:23 44.74862 -81.07700 37991 ft 467 kts 238°
2026-05-01 15:23 44.70731 -81.14788 37999 ft 471 kts 226°
2026-05-01 15:24 44.65674 -81.20600 37999 ft 473 kts 221°
2026-05-01 15:24 44.60468 -81.26256 38000 ft 473 kts 221°
2026-05-01 15:25 44.55243 -81.31976 38014 ft 473 kts 221°
2026-05-01 15:25 44.50073 -81.37694 38020 ft 473 kts 221°
2026-05-01 15:26 44.44949 -81.43371 38018 ft 473 kts 221°
2026-05-01 15:26 44.39795 -81.49072 38026 ft 472 kts 221°
2026-05-01 15:27 44.34644 -81.54752 38017 ft 471 kts 221°
2026-05-01 15:28 44.26922 -81.63241 38034 ft 470 kts 221°
2026-05-01 15:28 44.21783 -81.68875 38034 ft 470 kts 221°
2026-05-01 15:29 44.14076 -81.77298 38042 ft 469 kts 221°
2026-05-01 15:30 44.03810 -81.88475 38041 ft 468 kts 221°
2026-05-01 15:31 43.88413 -82.05145 38044 ft 468 kts 222°
2026-05-01 15:32 43.78145 -82.16198 38045 ft 467 kts 222°
2026-05-01 15:34 43.62745 -82.32685 38041 ft 466 kts 222°